Date String (YYYY-MM-DD hh:mm:ss) UTC,Instrument flags,Ambient pressure (hPa),Sample flow (lpm),Bypass flow (lpm),Sample temperature (°C),Ambient temperature (°C),ASC tube jacket temperature (°C),LED temperature (°C),Box temperature (°C),Sample RH (%),Span deviation,Mass concentration (μg/m³),Mass concentration (μg/m³),Mass concentration (μg/m³)
DateTimeUTC,F1_M11,P_M11,Q1_M11,Q2_M11,T1_M11,T2_M11,T3_M11,T4_M11,T5_M11,U1_M11,ZSPAN_M11,X0_M11,X2_M11,X1_M11
2022-05-07 13:00:00,,0817.4,4.99,0.00,29.4,28.6,00.0,38.4,31.2,10.3,0000.0,0009.97,0003.73,0002.15
2022-05-07 13:01:00,,0817.4,4.99,0.00,29.5,28.6,00.0,38.4,31.2,10.5,0000.0,0010.26,0003.73,0002.15
2022-05-07 13:02:00,,0817.4,5.00,0.00,29.5,28.7,00.0,38.4,31.2,10.3,0000.0,0010.23,0003.74,0002.17
2022-05-07 13:03:00,,0817.3,5.00,0.00,29.5,28.7,00.0,38.4,31.3,10.3,0000.0,0010.11,0003.71,0002.20
2022-05-07 13:04:00,,0817.4,5.00,0.00,29.5,28.6,00.0,38.4,31.3,10.5,0000.0,0010.08,0003.73,0002.20
2022-05-07 13:05:00,,0817.4,4.99,0.00,29.5,28.7,00.0,38.4,31.3,10.8,0000.0,0010.29,0003.75,0002.21
2022-05-07 13:06:00,,0817.3,4.99,0.00,29.5,28.7,00.0,38.4,31.3,10.8,0000.0,0010.11,0003.77,0002.23
2022-05-07 13:07:00,,0817.4,5.00,0.00,29.5,28.7,00.0,38.4,31.3,10.8,0000.0,0009.59,0003.81,0002.26
2022-05-07 13:08:00,,0817.4,5.00,0.00,29.6,28.7,00.0,38.4,31.3,11.0,0000.0,0009.45,0003.86,0002.27
2022-05-07 13:09:00,,0817.4,5.01,0.00,29.6,28.7,00.0,38.5,31.3,10.8,0000.0,0009.56,0003.87,0002.26
2022-05-07 13:10:00,,0817.4,4.99,0.00,29.6,28.7,00.0,38.5,31.4,11.2,0000.0,0009.49,0003.85,0002.25
2022-05-07 13:11:00,,0817.5,5.00,0.00,29.6,28.7,00.0,38.5,31.3,11.4,0000.0,0009.24,0003.80,0002.22
2022-05-07 13:12:00,,0817.5,5.00,0.00,29.6,28.7,00.0,38.5,31.3,11.7,0000.0,0009.08,0003.81,0002.22
2022-05-07 13:13:00,,0817.4,5.00,0.00,29.6,28.7,00.0,38.5,31.3,10.8,0000.0,0009.41,0003.88,0002.21
2022-05-07 13:14:00,,0817.4,5.00,0.00,29.6,28.7,00.0,38.5,31.3,11.4,0000.0,0009.65,0003.95,0002.19
2022-05-07 13:15:00,,0817.4,5.01,0.00,29.6,28.8,00.0,38.5,31.3,11.8,0000.0,0009.60,0003.95,0002.20
2022-05-07 13:16:00,,0817.4,4.99,0.00,29.6,28.8,00.0,38.5,31.4,11.8,0000.0,0009.38,0003.98,0002.18
2022-05-07 13:17:00,,0817.4,5.00,0.00,29.6,28.8,00.0,38.5,31.3,11.6,0000.0,0009.57,0003.99,0002.17
2022-05-07 13:18:00,,0817.4,5.00,0.00,29.6,28.8,00.0,38.5,31.4,11.6,0000.0,0009.63,0004.01,0002.17
2022-05-07 13:19:00,,0817.4,5.00,0.00,29.7,28.8,00.0,38.5,31.4,11.4,0000.0,0009.51,0003.96,0002.17
2022-05-07 13:20:00,,0817.4,5.00,0.00,29.7,28.8,00.0,38.5,31.4,11.5,0000.0,0009.84,0003.92,0002.17
2022-05-07 13:21:00,,0817.3,4.99,0.00,29.7,28.8,00.0,38.6,31.4,11.5,0000.0,0010.09,0003.95,0002.17
2022-05-07 13:22:00,,0817.3,5.00,0.00,29.7,28.7,00.0,38.6,31.4,11.5,0000.0,0010.26,0004.00,0002.19
2022-05-07 13:23:00,,0817.3,5.00,0.00,29.7,28.7,00.0,38.6,31.4,11.8,0000.0,0010.71,0004.03,0002.20
2022-05-07 13:24:00,,0817.3,4.99,0.00,29.7,28.8,00.0,38.6,31.4,11.9,0000.0,0010.44,0003.95,0002.18
2022-05-07 13:25:00,,0817.3,5.00,0.00,29.7,28.8,00.0,38.6,31.4,11.9,0000.0,0010.54,0003.91,0002.20
2022-05-07 13:26:00,,0817.4,5.01,0.00,29.7,28.8,00.0,38.6,31.4,12.4,0000.0,0010.61,0003.90,0002.19
2022-05-07 13:27:00,,0817.4,5.00,0.00,29.7,28.8,00.0,38.6,31.4,12.4,0000.0,0010.35,0003.84,0002.20
2022-05-07 13:28:00,,0817.3,5.00,0.00,29.7,28.8,00.0,38.6,31.4,12.8,0000.0,0010.23,0003.82,0002.22
2022-05-07 13:29:00,,0817.2,4.99,0.00,29.7,28.8,00.0,38.6,31.4,13.1,0000.0,0010.13,0003.79,0002.22
2022-05-07 13:30:00,,0817.2,5.00,0.00,29.7,28.8,00.0,38.6,31.4,13.5,0000.0,0010.01,0003.78,0002.21
2022-05-07 13:31:00,,0817.3,5.00,0.00,29.7,28.8,00.0,38.6,31.4,13.8,0000.0,0009.98,0003.75,0002.19
2022-05-07 13:32:00,,0817.3,5.00,0.00,29.7,28.9,00.0,38.6,31.4,13.7,0000.0,0009.92,0003.72,0002.17
2022-05-07 13:33:00,,0817.3,4.99,0.00,29.7,28.8,00.0,38.6,31.4,13.6,0000.0,0010.74,0003.70,0002.17
2022-05-07 13:34:00,,0817.4,5.00,0.00,29.7,28.8,00.0,38.6,31.4,12.3,0000.0,0010.33,0003.64,0002.15
2022-05-07 13:35:00,,0817.2,5.00,0.00,29.8,28.8,00.0,38.6,31.5,12.0,0000.0,0010.39,0003.63,0002.14
2022-05-07 13:36:00,,0817.2,5.01,0.00,29.8,28.8,00.0,38.7,31.5,12.0,0000.0,0010.35,0003.64,0002.14
2022-05-07 13:37:00,,0817.3,5.01,0.00,29.8,28.9,00.0,38.7,31.5,12.2,0000.0,0010.42,0003.64,0002.13
2022-05-07 13:38:00,,0817.3,5.00,0.00,29.8,28.9,00.0,38.7,31.6,12.0,0000.0,0010.66,0003.74,0002.13
2022-05-07 13:39:00,,0817.3,5.00,0.00,29.8,28.9,00.0,38.7,31.6,12.0,0000.0,0010.51,0003.73,0002.12
2022-05-07 13:40:00,,0817.2,4.99,0.00,29.8,28.9,00.0,38.7,31.6,11.7,0000.0,0010.66,0003.72,0002.10
2022-05-07 13:41:00,,0817.2,5.00,0.00,29.8,28.9,00.0,38.7,31.6,12.3,0000.0,0011.23,0003.73,0002.10
2022-05-07 13:42:00,,0817.3,5.00,0.00,29.8,29.0,00.0,38.7,31.6,12.0,0000.0,0011.64,0003.74,0002.11
2022-05-07 13:43:00,,0817.3,5.00,0.00,29.8,29.0,00.0,38.7,31.6,11.8,0000.0,0011.64,0003.75,0002.13
2022-05-07 13:44:00,,0817.3,5.00,0.00,29.9,29.0,00.0,38.7,31.6,12.0,0000.0,0011.38,0003.75,0002.14
2022-05-07 13:45:00,,0817.3,5.00,0.00,29.9,29.0,00.0,38.8,31.6,12.7,0000.0,0011.40,0003.76,0002.16
2022-05-07 13:46:00,,0817.2,5.00,0.00,29.9,29.0,00.0,38.8,31.6,12.3,0000.0,0011.28,0003.76,0002.17
2022-05-07 13:47:00,,0817.2,5.00,0.00,29.9,29.0,00.0,38.8,31.7,11.9,0000.0,0011.11,0003.77,0002.18
2022-05-07 13:48:00,,0817.1,5.00,0.00,29.9,29.0,00.0,38.8,31.7,11.8,0000.0,0011.04,0003.80,0002.20
2022-05-07 13:49:00,,0817.1,5.01,0.00,29.9,29.0,00.0,38.8,31.7,12.3,0000.0,0011.10,0003.77,0002.22
2022-05-07 13:50:00,,0817.1,5.00,0.00,29.9,29.1,00.0,38.8,31.7,12.4,0000.0,0011.56,0003.79,0002.23
2022-05-07 13:51:00,,0817.1,4.99,0.00,30.0,29.1,00.0,38.8,31.7,13.0,0000.0,0011.52,0003.78,0002.24
2022-05-07 13:52:00,,0817.1,5.01,0.00,30.0,29.1,00.0,38.8,31.7,12.6,0000.0,0011.08,0003.81,0002.26
2022-05-07 13:53:00,,0817.1,5.00,0.00,30.0,29.1,00.0,38.8,31.7,12.4,0000.0,0010.48,0003.84,0002.26
2022-05-07 13:54:00,,0817.1,5.00,0.00,30.0,29.1,00.0,38.9,31.8,12.6,0000.0,0010.42,0003.85,0002.26
2022-05-07 13:55:00,,0817.1,5.01,0.00,30.0,29.1,00.0,38.9,31.8,12.5,0000.0,0009.97,0003.88,0002.26
2022-05-07 13:56:00,,0817.2,5.00,0.00,30.0,29.2,00.0,38.9,31.7,11.8,0000.0,0009.78,0003.91,0002.26
2022-05-07 13:57:00,,0817.1,4.99,0.00,30.0,29.2,00.0,38.9,31.7,12.1,0000.0,0009.76,0003.93,0002.28
2022-05-07 13:58:00,,0817.2,5.00,0.00,30.1,29.2,00.0,38.9,31.8,12.6,0000.0,0009.80,0003.92,0002.29
2022-05-07 13:59:00,,0817.1,5.00,0.00,30.1,29.2,00.0,38.9,31.8,12.3,0000.0,0010.70,0003.88,0002.28
